Flag for Germany Weather past 2 weeks in Löhne, North Rhine-Westphalia, Germany

Now
41 °F

Quite cool.


Feels Like: 32 °F
Forecast: 32 / 37 °F
Wind: 20 mph from West

Location: Bueckeburg

Current Time: Dec 25, 2014 at 6:08:32 AM

Latest Report: Dec 25, 2014 at 5:20 AM


Visibility: 6 mi

Pressure: 30.01 "Hg

Humidity: 81%

Dew point: 36 °F

Location of LöhneLocation

Historic Weather in Löhne — Graph

°F

Löhne temperature yesterday

Maximum temperature yesterday: 50 °F (at 12:20 AM)
Minimum temperature yesterday: 39 °F (at 11:20 PM)
Average temperature yesterday: 46 °F

Past Weeks' High & Low Weather Summary

 TemperatureHumidityPressure
High54 °F (Dec 18, 2:20 PM)94% (Dec 18, 12:20 AM)30.30 "Hg (Dec 18, 12:20 AM)
Low34 °F (Dec 14, 9:20 PM)61% (Dec 10, 5:20 AM)29.30 "Hg (Dec 12, 3:20 PM)
Average44 °F84%29.85 "Hg
* Reported Dec 10 4:20 AM — Dec 25 4:20 AM, Löhne, Weather by CustomWeather, © 2014

Note: Actual official high and low records may vary slightly from our data, if they occured in-between our weather recording intervals... More about our weather records

Advertising

Löhne weather history for previous 24 hours

 ConditionsComfort  
Time TempWeatherWind HumidityBarometerVisibility
4:20 AM
Dec 25
41 °FQuite cool.18 mph81%30.01 "Hg6 mi
3:20 AM39 °FChilly.15 mph81%30.01 "Hg6 mi
2:20 AM39 °FChilly.14 mph81%30.01 "Hg6 mi
1:20 AM39 °FChilly.15 mph81%30.01 "Hg6 mi
12:20 AM39 °FChilly.14 mph81%30.01 "Hg6 mi
11:20 PM
Dec 24
39 °FChilly.13 mph87%30.01 "Hg6 mi
10:20 PM41 °FQuite cool.13 mph81%29.98 "HgN/A
9:20 PM41 °FQuite cool.15 mph81%29.98 "HgN/A
8:20 PM43 °FQuite cool.13 mph87%29.95 "Hg6 mi
7:20 PM43 °FQuite cool.10 mph87%29.92 "Hg6 mi
6:20 PM43 °FQuite cool.10 mph93%29.92 "Hg6 mi
5:20 PM45 °FQuite cool.12 mph87%29.89 "Hg5 mi
4:20 PM46 °FCool.12 mph87%29.89 "Hg4 mi
3:20 PM45 °FQuite cool.14 mph93%29.86 "Hg3 mi
2:20 PM48 °FCool.17 mph87%29.83 "Hg1 mi
1:20 PM48 °FCool.21 mph87%29.83 "Hg1 mi
12:20 PM46 °FCool.21 mph93%29.83 "Hg2 mi
11:20 AM46 °FCool.22 mph93%29.83 "Hg1 mi
10:20 AM46 °FCool.20 mph93%29.83 "Hg1 mi
9:20 AM46 °FCool.21 mph87%29.83 "Hg2 mi
8:20 AM46 °FCool.23 mph87%29.83 "Hg3 mi
7:20 AM46 °FCool.21 mph82%29.83 "Hg4 mi
6:20 AM48 °FCool.21 mph71%29.83 "Hg5 mi
Weather by CustomWeather, © 2014

See weather overviewHow to use our weather pages